Tracking 30260 objects as of 15-Feb-2025
HD Live streaming from Space Station
objects crossing your sky now

STARLINK-11512

Track STARLINK-11512 now!
10-day predictions
STARLINK-11512 is classified as:


NORAD ID: 62517
Int'l Code: 2025-004G
Perigee: 342.2 km
Apogee: 345.2 km
Inclination: 43.0 °
Period: 91.3 minutes
Semi major axis: 6714 km
RCS: Unknown
Launch date: January 8, 2025
Source: United States (US)
Launch site: AIR FORCE EASTERN TEST RANGE (AFETR)
Your satellite tracking list
Your tracking list is empty




NASA's NSSDC Master Catalog

Two Line Element Set (TLE):
1 62517U 25004G   25045.94398281  .00001533  00000-0  11678-4 0  9991
2 62517  43.0007 248.1748 0002231 272.7009  87.3606 15.77853717  6227
Source of the keplerian elements: AFSPC